BSAT-4B

Last updated on Sat Jul 05 2025 00:02:47 GMT+0000 (Coordinated Universal Time)

1 46112U 20056A 25185.62406845 -.00000336 00000+0 00000+0 0 9994 2 46112 0.0463 162.7248 0004457 319.5885 135.0604 1.00271947 17905
UTC large
Height (km)
Speed (km/s)
/
Latitude / Longitude
Inclination (degrees)
Orbital Period (minutes)
Azimuth
Elevation
Range (km)
Doppler Factor

Next 0 passes for location: London (51.5072 / 0.1276)

Sorry there are no passes over London.